This is the latest recevied weather packets stored in our database for station/object SHLBYV-WX. If no packets are shown the sender has not sent any weather packets the latest 10 day(s).
| Time | Temp. | Humidity | Pressure | Rain* | Wind** | Luminosity | Snow |
|---|---|---|---|---|---|---|---|
| 1778043689 | 6.67° C | 64% | 980.4 hPa | 0 mm | - | - | - |
| 1778042752 | 6.67° C | 58% | 981.5 hPa | 0 mm | - | - | - |
| 1778041867 | 7.22° C | 61% | 980.9 hPa | 0 mm | - | - | - |
| 1778040952 | 6.67° C | 61% | 980.9 hPa | 0 mm | - | - | - |
| 1778040092 | 6.67° C | 61% | 980.9 hPa | 0 mm | - | - | - |
| 1778039150 | 6.67° C | 58% | 980.5 hPa | 0 mm | - | - | - |
| 1778037351 | 7.78° C | 53% | 980.5 hPa | 0 mm | - | - | - |
| 1778036493 | 7.78° C | 53% | 980.5 hPa | 0 mm | - | - | - |
| 1778035551 | 7.78° C | 48% | 980.6 hPa | 0 mm | - | - | - |
| 1778034669 | 7.22° C | 45% | 980.7 hPa | 0 mm | - | - | - |
| 1778033751 | 8.33° C | 45% | 980.8 hPa | 0 mm | - | - | - |
| 1778032876 | 8.89° C | 45% | 980.8 hPa | 0 mm | - | - | - |
| 1778031951 | 8.89° C | 42% | 980.2 hPa | 0 mm | - | - | - |
| 1778031072 | 8.89° C | 42% | 980.2 hPa | 0 mm | - | - | - |
| 1778030150 | 8.33° C | 42% | 980.2 hPa | 0 mm | - | - | - |
| 1778029279 | 8.33° C | 42% | 980.2 hPa | 0 mm | - | - | - |
| 1778028349 | 8.89° C | 37% | 980.3 hPa | 0 mm | - | - | - |
| 1778027465 | 9.44° C | 37% | 980.6 hPa | 0 mm | - | - | - |
| 1778026550 | 9.44° C | 37% | 980.6 hPa | 0 mm | - | - | - |
| 1778025686 | 10° C | 37% | 980.6 hPa | 0 mm | - | - | - |
| 1778024751 | 10° C | 36% | 980.5 hPa | 0 mm | - | - | - |
| 1778023868 | 10.56° C | 35% | 980.4 hPa | 0 mm | - | - | - |
| 1778022951 | 10.56° C | 35% | 980.4 hPa | 0 mm | - | - | - |
| 1778022078 | 10.56° C | 35% | 980.4 hPa | 0 mm | - | - | - |
| 1778021152 | 11.11° C | 36% | 980.3 hPa | 0 mm | - | - | - |
* Rain latest hour (hover to see other rain measurements)
** Current wind speed in m/s (hover to see current wind gust speed)